Flag for U.S.A. Weather past 2 weeks in Boise, Idaho, U.S.A.

Now
39 °F

Mostly cloudy.


Feels Like: 39 °F
Forecast: 36 / 45 °F
Wind: No wind

Location: Boise Air Terminal

Current Time: Dec 18, 2014 at 12:28:51 AM

Latest Report: Dec 17, 2014 at 11:53 PM


Visibility: 10 mi

Pressure: 30.06 "Hg

Humidity: 79%

Dew point: 33 °F

Location of BoiseLocation

Historic Weather in Boise — Graph

°F

Boise temperature yesterday

Maximum temperature yesterday: 46 °F (at 1:53 PM)
Minimum temperature yesterday: 28 °F (at 5:53 AM)
Average temperature yesterday: 37 °F

Past Weeks' High & Low Weather Summary

 TemperatureHumidityPressure
High61 °F (Dec 11, 1:53 PM)100% (Dec 2, 11:53 PM)30.37 "Hg (Dec 2, 11:53 PM)
Low26 °F (Dec 14, 7:53 AM)30% (Dec 12, 8:53 AM)29.54 "Hg (Dec 11, 4:53 PM)
Average42 °F76%30.04 "Hg
* Reported Dec 2 10:53 PM — Dec 17 10:53 PM, Boise, Weather by CustomWeather, © 2014

Note: Actual official high and low records may vary slightly from our data, if they occured in-between our weather recording intervals... More about our weather records

Advertising

Boise weather history for previous 24 hours

 ConditionsComfort  
Time TempWeatherWind HumidityBarometerVisibility
10:53 PM
Dec 17
40 °FMostly cloudy.5 mph77%30.06 "Hg10 mi
9:53 PM39 °FOvercast.5 mph79%30.05 "Hg10 mi
8:53 PM41 °FMostly cloudy.7 mph74%30.05 "Hg10 mi
7:53 PM39 °FOvercast.5 mph79%30.05 "Hg10 mi
6:53 PM41 °FMostly cloudy.6 mph76%30.03 "Hg10 mi
5:53 PM42 °FOvercast.No wind73%30.03 "Hg10 mi
4:53 PM43 °FOvercast.3 mph71%30.01 "Hg10 mi
3:53 PM44 °FOvercast.5 mph68%29.98 "Hg10 mi
2:53 PM46 °FOvercast.No wind63%29.96 "Hg10 mi
1:53 PM46 °FPassing clouds.3 mph61%29.96 "Hg10 mi
12:53 PM45 °FOvercast.3 mph60%29.98 "Hg10 mi
11:53 AM45 °FSunny.14 mph58%29.98 "Hg10 mi
10:53 AM37 °FOvercast.No wind82%30.02 "HgN/A
9:53 AM33 °FOvercast.5 mph88%30.04 "Hg9 mi
8:53 AM30 °FPassing clouds.No wind96%30.03 "Hg8 mi
7:53 AM28 °FPassing clouds.3 mph93%30.02 "Hg10 mi
6:53 AM29 °FClear.No wind89%30.01 "Hg10 mi
5:53 AM28 °FClear.No wind93%30.00 "Hg10 mi
4:53 AM30 °FClear.No wind96%30.00 "Hg10 mi
3:53 AM32 °FClear.No wind92%30.01 "Hg10 mi
2:53 AM31 °FClear.No wind92%30.01 "Hg10 mi
1:53 AM34 °FClear.No wind82%30.00 "Hg10 mi
12:53 AM36 °FClear.7 mph79%30.00 "Hg10 mi
Weather by CustomWeather, © 2014

See weather overviewHow to use our weather pages